CZ-2D DEB, 44611

Orbit data source: Space-Track

CZ-2D DEB, 44611 is space debris in SSO originally from a launch on Mon, 09 Oct 2017 UTC launched from the Jiuquan Satellite Launch Center, China (JSC). Debris objects in space refer to the collection of defunct objects orbiting the Earth. Examples of debris include non-operational satellites, rocket bodies, and fragments generated from explosions, collisions, or faulty payload assembly.

Loading next visibility...
Identifier
44611, 2017-060D
Orbit
SSO
Country
Flag of CNCN / PRC
Related business
Manufacturer
Unknown
Mission
Spacecraft
Bus & Motor
Unknown
Mass
Unknown
Launch date (UTC)
2017-10-09 (8 years ago)
Launch vehicle
Unknown
Launch site
Jiuquan Satellite Launch Center, China (JSC)
Object type
Payload
Rocket body
Debris
Shape & HBR
Unknown
Radar Cross Section
Small (<0.1 m²)

Expand to show TLE details & history
Last TLE update: 1 day ago

TLE from 1 day ago
0 CZ-2D DEB
1 44611U 17060D   25242.34648175  .00007771  00000-0  77259-3 0  9998
2 44611  98.1932  21.2073 0029893 355.1539   4.9385 14.91643368423729
Epoch: 2025-08-30T08:18Z
TLE epoch observation values (Epoch: 2025-08-30T08:18:56.023Z)
Latitude
0.00004°
Longitude
-82.30823°
Altitude
575.074 km
Speed
7.584 km/s
True Right ascension
01h 24m 49s
True Declination
0° 00' 00"
Sunlit
Object was in full shadow at epoch
Visualization orbit readout
Latitude
Unknown
Longitude
Unknown
Altitude
Unknown
Speed
Unknown
Apparent Right ascension
Unknown
Apparent Declination
Unknown
Sunlit
N/A
Visualization observer readout
Local Sidereal Time
00:22:42
Azimuth
Unknown
Elevation
Unknown
Doppler factor
Unknown
Orbital elements
Apogee altitude
610.679 km
Perigee altitude
569.02 km
Semi-major axis
6,967.987 km
Eccentricity
0.00299
Inclination
98.1932°
RAAN
21.2073°
Arg. of periapsis
355.1539°
True anomaly
4.9681°
Mean anomaly
4.9385°
Eccentric anomaly
4.95329°
Mean motion
3.73149 °/min
Orbital period
96.48 mins
BSTAR
0.00077259
Loading maneuver chart data...
Computing Atmospheric mass density...
Loading historical data...
Loading historical data...
Loading historical data...
Loading historical data...
Loading historical data...
Loading historical data...
Loading historical data...
Other satellites on launch #60 in the year 2017 (2017-10-09 UTC)

Documentation

Showing up to 5 results
|